Weather History for Minneapolis Flying Cloud, MN

Change the Weather History Date:

Wednesday, June 5, 2013

  Actual Average Record
Temperature  
Mean Temperature 58 °F -  
Max Temperature 64 °F 71 °F 91 °F (1999)
Min Temperature 53 °F 53 °F 43 °F (2002)
Degree Days  
Heating Degree Days 6    
Growing Degree Days 8 (Base 50)    
Moisture  
Dew Point 54 °F    
Average Humidity 87    
Maximum Humidity 97    
Minimum Humidity 75    
Precipitation  
Precipitation 0.27 in - - ()
Sea Level Pressure  
Sea Level Pressure 29.98 in    
Wind  
Wind Speed 6 mph (East)    
Max Wind Speed 15 mph    
Max Gust Speed 23 mph    
Visibility 5 miles    
Events Rain    
Averages and records for this station are not official NWS values.
T = Trace of Precipitation, MM = Missing Value Source: NWS Daily Summary

Daily Weather History Graph

Daily Weather History Graph

Search for Another Location

Airport:

Trip Planner

Search our weather history database for the weather conditions in past years. The results will help you decide how hot, cold, wet, or windy it might be!

Date:

Astronomy

Jun. 05, 2013 Rise Set
Actual Time 5:29 AM CDT 8:56 PM CDT
Civil Twilight 4:52 AM CDT 9:32 PM CDT
Nautical Twilight 4:04 AM CDT 10:20 PM CDT
Astronomical Twilight 3:03 AM CDT 11:22 PM CDT
Moon 3:40 AM CDT (6/5) 6:18 PM CDT (6/5)
Length of Visible Light 16h 40m
Length of Day
15h 27m
Waning Crescent, 8% of the Moon is Illuminated
Jun 5
Waning Crescent
Jun 8
New
Jun 16
First Quarter
Jun 23
Full
Jun 29
Last Quarter

Hourly Weather History & Observations

Time (CDT) Temp. Dew Point Humidity Pressure Visibility Wind Dir Wind Speed Gust Speed Precip Events Conditions
12:53 AM 55.9 °F 48.9 °F 77% 30.05 in 10.0 mi ESE 5.8 mph - N/A   Overcast
1:53 AM 55.0 °F 50.0 °F 83% 30.04 in 10.0 mi SSE 3.5 mph - N/A   Overcast
2:14 AM 55.4 °F 50.0 °F 82% 30.05 in 10.0 mi SSE 5.8 mph - N/A   Overcast
2:39 AM 55.4 °F 50.0 °F 82% 30.03 in 10.0 mi SE 5.8 mph - N/A   Overcast
2:53 AM 55.0 °F 50.0 °F 83% 30.04 in 8.0 mi SE 8.1 mph - N/A   Overcast
3:51 AM 55.4 °F 51.8 °F 88% 30.02 in 4.0 mi ESE 4.6 mph - 0.01 in   Overcast
3:53 AM 55.0 °F 52.0 °F 89% 30.02 in 3.0 mi ESE 4.6 mph - 0.01 in   Overcast
4:03 AM 53.6 °F 51.8 °F 94% 30.02 in 2.5 mi SE 5.8 mph - N/A   Overcast
4:20 AM 53.6 °F 51.8 °F 94% 30.00 in 2.5 mi ESE 6.9 mph - N/A   Overcast
4:53 AM 54.0 °F 53.1 °F 97% 30.00 in 2.5 mi SE 3.5 mph - N/A   Overcast
5:02 AM 55.4 °F 53.6 °F 94% 30.00 in 3.0 mi SE 5.8 mph - N/A   Overcast
5:53 AM 55.0 °F 53.1 °F 93% 30.01 in 4.0 mi SSE 5.8 mph - N/A   Overcast
6:53 AM 55.9 °F 53.1 °F 90% 30.00 in 2.5 mi SE 3.5 mph - N/A   Overcast
7:04 AM 55.4 °F 53.6 °F 94% 29.99 in 1.5 mi ESE 5.8 mph - N/A   Overcast
7:53 AM 55.9 °F 54.0 °F 93% 30.01 in 1.0 mi SE 4.6 mph - N/A   Overcast
8:20 AM 55.4 °F 53.6 °F 94% 29.99 in 0.8 mi SE 6.9 mph - 0.00 in   Overcast
8:43 AM 55.4 °F 53.6 °F 94% 30.00 in 0.8 mi SE 5.8 mph - 0.00 in   Overcast
8:53 AM 55.9 °F 54.0 °F 93% 30.00 in 0.8 mi SE 5.8 mph - 0.01 in   Overcast
9:25 AM 55.4 °F 53.6 °F 94% 29.99 in 1.0 mi ESE 6.9 mph - 0.01 in Rain Light Rain
9:53 AM 55.9 °F 54.0 °F 93% 29.98 in 2.5 mi East 5.8 mph - 0.02 in Rain Light Rain
10:01 AM 57.2 °F 55.4 °F 94% 29.98 in 4.0 mi ESE 5.8 mph - 0.00 in Rain Light Rain
10:53 AM 57.0 °F 54.0 °F 89% 29.98 in 6.0 mi SE 6.9 mph - 0.00 in   Overcast
11:53 AM 57.9 °F 55.0 °F 90% 29.99 in 7.0 mi SSE 6.9 mph - N/A   Overcast
12:23 PM 59.0 °F 55.4 °F 88% 29.98 in 8.0 mi SE 8.1 mph - N/A   Overcast
12:53 PM 59.0 °F 55.0 °F 87% 29.98 in 8.0 mi SSE 5.8 mph - N/A   Overcast
1:53 PM 60.1 °F 55.0 °F 83% 29.96 in 9.0 mi SW 3.5 mph - N/A   Overcast
2:53 PM 64.0 °F 55.9 °F 75% 29.95 in 9.0 mi ENE 3.5 mph - N/A   Mostly Cloudy
3:32 PM 64.4 °F 57.2 °F 77% 29.93 in 9.0 mi ENE 6.9 mph - N/A   Scattered Clouds
3:53 PM 63.0 °F 55.9 °F 78% 29.95 in 7.0 mi Variable 4.6 mph - N/A   Mostly Cloudy
3:59 PM 60.8 °F 53.6 °F 77% 29.94 in 1.8 mi West 15.0 mph 23.0 mph 0.08 in Rain Light Rain
4:04 PM 57.2 °F 51.8 °F 82% 29.95 in 0.8 mi NW 9.2 mph 23.0 mph 0.20 in Rain Heavy Rain
4:10 PM 57.2 °F 53.6 °F 88% 29.94 in 1.0 mi NNW 8.1 mph - 0.22 in Rain Rain
4:15 PM 57.2 °F 53.6 °F 88% 29.94 in 3.0 mi NNW 4.6 mph - 0.22 in Rain Light Rain
4:53 PM 59.0 °F 55.0 °F 87% 29.94 in 10.0 mi North 4.6 mph - 0.23 in   Overcast
5:15 PM 60.8 °F 55.4 °F 82% 29.94 in 5.0 mi NE 6.9 mph - N/A   Overcast
5:28 PM 60.8 °F 57.2 °F 88% 29.94 in 2.0 mi NE 8.1 mph - N/A   Overcast
5:53 PM 60.1 °F 55.9 °F 86% 29.95 in 2.5 mi NNE 6.9 mph - N/A   Overcast
6:26 PM 60.8 °F 55.4 °F 82% 29.94 in 3.0 mi East 5.8 mph - N/A   Overcast
6:53 PM 59.0 °F 55.0 °F 87% 29.94 in 4.0 mi ENE 4.6 mph - N/A   Overcast
7:00 PM 59.0 °F 55.4 °F 88% 29.94 in 4.0 mi Calm Calm - N/A   Overcast
7:53 PM 59.0 °F 55.0 °F 87% 29.96 in 6.0 mi ENE 4.6 mph - N/A   Overcast
8:02 PM 59.0 °F 55.4 °F 88% 29.96 in 6.0 mi ENE 4.6 mph - N/A   Overcast
8:53 PM 57.9 °F 54.0 °F 87% 29.97 in 8.0 mi NE 6.9 mph - N/A   Overcast
9:53 PM 57.0 °F 54.0 °F 89% 29.98 in 10.0 mi NNE 4.6 mph - N/A   Overcast
10:34 PM 57.2 °F 53.6 °F 88% 29.98 in 10.0 mi North 4.6 mph - N/A   Overcast
10:41 PM 57.2 °F 53.6 °F 88% 29.98 in 10.0 mi North 5.8 mph - N/A   Overcast
10:53 PM 57.0 °F 53.1 °F 87% 29.98 in 10.0 mi North 4.6 mph - N/A   Overcast
11:53 PM 57.0 °F 53.1 °F 87% 29.97 in 10.0 mi North 5.8 mph - N/A   Overcast